Preview of NWS' New Version of Forecast
This preview is not operational and should not be used for support decisions.

Regional Weather Roundup (RWR)

Issued by National Weather Service (NWS)

                            
000
ASUS43 KTOP 241108
RWRKS 

WEATHER ROUNDUP FOR KANSAS
NATIONAL WEATHER SERVICE GOODLAND KS
600 AM CDT MON JUN 24 2019

NOTE:  "FAIR" INDICATES FEW OR NO CLOUDS BELOW 12,000 FEET WITH NO
SIGNIFICANT WEATHER AND/OR OBSTRUCTIONS TO VISIBILITY.

KSZ001>006-013>018-027>032-041>047-241200-
NORTHWEST KANSAS
  
CITY           SKY/WX    TMP DP  RH WIND       PRES   REMARKS
GOODLAND       CLEAR     49  46  90 SW14      29.95R                  
HAYS           CLEAR     51  49  92 W7        29.91R                  
HILL CITY      CLEAR     49  47  93 W3        29.90S                  
RUSSELL        CLEAR     52  49  89 W8        29.89R                  
$$

KSZ061>065-074>080-084>089-241200-
SOUTHWEST KANSAS
  
CITY           SKY/WX    TMP DP  RH WIND       PRES   REMARKS
DODGE CITY     CLEAR     52  49  89 W6        29.95S                  
ELKHART        CLEAR     55  51  85 W10       30.02S                  
GARDEN CITY    CLEAR     47  46  97 W7        29.97R                  
GREAT BEND     CLEAR     54  52  93 W6        29.92R                  
LIBERAL        CLEAR     50  48  93 W6        30.00F                  
PRATT          CLEAR     55  54  94 NW7       29.92S                  
$$

KSZ066>073-081>083-090>101-241200-
SOUTHEAST KANSAS
  
CITY           SKY/WX    TMP DP  RH WIND       PRES   REMARKS
CHANUTE        MOCLDY    69  65  86 NW7       29.80R                  
COFFEYVILLE    CLOUDY    67  65  93 W5        29.80R                  
HUTCHINSON     CLEAR     56  53  90 NW5       29.90R                  
MEDICINE LODGE   N/A     55  55 100 W6        29.92R                  
NEWTON         CLEAR     56  54  93 NW6       29.89R                  
PARSONS        CLOUDY    69  68  96 NW5       29.82R                  
WICHITA INTL   PTCLDY    61  55  81 NW9       29.88R                  
WICHITA JABRA  CLEAR     57  54  89 NW9       29.87R                  
WICHITA MCCONL CLEAR     60  53  80 NW12      29.87R HAZE             
WINFIELD       CLEAR     64  61  90 NW9       29.87R                  
$$

KSZ007>012-019>026-033>040-048>060-102>105-241200-
NORTHEAST KANSAS
  
CITY           SKY/WX    TMP DP  RH WIND       PRES   REMARKS
CONCORDIA      CLEAR     56  52  86 MISG      29.86R                  
EMPORIA        PTCLDY    58  56  93 NW10      29.84R                  
LAWRENCE       CLOUDY    62  58  86 NW10      29.79R                  
MANHATTAN      CLEAR     56  54  93 SW5       29.84R                  
MARYSVILLE     MOCLDY    59  54  82 W6        29.82S                  
OLATHE IND     PTCLDY    62  57  83 W13       29.80R                  
OLATHE EXE     PTCLDY    62  59  90 W7        29.78R                  
SALINA         CLEAR     56  52  86 CALM      29.88R                  
TOPEKA BILLARD PTCLDY    61  56  83 W8        29.80R                  
TOPEKA FORBES  PTCLDY    59  55  87 W10       29.81R                  
$$